Terug naar catalogus

STARLINK-6165

ActiefCommunicatieVLEO
NORAD 57127·PAYLOAD·🇺🇸 United States

Gelanceerd Jun 23, 2023 vanaf Cape Canaveral Space Force Station

Loading…

Volgende Passages (komende 24 uur)

TLE

VersSource: CelesTrak SupGP

Epoch: Sep 14, 2026, 20:56 UTC

1 57127C 23090AC  26257.87270833 -.00030425  00000+0 -11021-2 0  2575
2 57127  42.9997 292.9559 0001619 262.6367 242.3205 15.27590481    15

Volg STARLINK-6165 in realtime met AllMySat

Download on the App Store